Location: Aiguèze
(44.3023°N, 4.5552°E)
Time: 10:17:01
(UTC+00:00)

Daily predictions for brighter satellites

Satellite Brightness Start Highest point End
(mag) Time Altitude Azimuth Time Altitude Azimuth Time Altitude Azimuth
NOSS 2-1 (C) 4.4 19:50:31 10° NW 19:55:13 70° SW 20:01:56 10° SSE
Cosmos 1455 Rocket 3.8 19:56:42 10° NNW 20:00:57 56° W 20:05:10 10° S
Cosmos 1697 Rocket 3.4 19:57:04 10° NNW 20:02:21 40° ENE 20:07:36 10° SE
Cosmos 1980 Rocket 3.8 19:58:08 10° N 20:02:38 23° NE 20:07:07 10° ESE
H-2A R/B 3.5 19:59:52 10° S 20:03:29 41° W 20:07:09 10° NNW
Lacrosse 5 rocket 3.9 20:04:38 10° W 20:06:10 12° WSW 20:07:42 10° SW
ARGOS Delta rocket 4.5 20:01:42 10° N 20:06:10 56° WNW 20:10:28 10° SSW
Resurs 01 Rocket 1.7 20:11:51 10° SSE 20:16:17 84° WSW 20:20:46 10° NNW
COSMOS 2406 3.8 20:14:05 10° S 20:19:16 36° ESE 20:24:29 10° NE
Cosmos 2184 Rocket 4.1 20:18:39 10° N 20:24:47 61° E 20:30:55 10° SSE
Cosmos 1833 Rocket 2.7 20:19:14 10° SSW 20:24:47 68° ESE 20:30:23 10° NNE
H-2A R/B 2.6 20:22:36 10° N 20:27:02 67° WNW 20:31:30 10° SSW
Cosmos 1536 Rocket 3.5 20:26:25 10° S 20:30:44 85° E 20:35:07 10° N
Cosmos 1703 3.2 20:28:06 10° S 20:31:54 67° E 20:35:44 10° NNE
CARTOSAT-1 3.6 20:29:16 10° SSE 20:33:33 72° ENE 20:37:51 10° N
Cosmos 1741 Rocket 4.1 20:29:33 10° NNW 20:34:55 87° WSW 20:40:03 11° SSE
USA 245 3.3 20:31:59 12° SSE 20:35:27 53° ENE 20:38:36 10° N
Cosmos 1606 Rocket 4.3 20:32:38 10° N 20:36:40 36° ENE 20:39:49 15° SE
Ariane Rocket 3.1 20:32:29 10° S 20:37:35 77° WSW 20:42:42 10° NNW
CZ-4B R/B 2.2 20:43:52 10° N 20:46:38 43° WNW 20:49:24 10° SSW
ARIANE 5 R/B 4.0 20:44:14 14° ESE 20:47:09 26° ENE 20:50:49 10° N
Terra 2.6 20:44:04 15° SE 20:47:30 37° ENE 20:51:53 10° N
SPOT 3 Rocket 3.6 20:44:20 12° SSE 20:49:11 87° ENE 20:54:27 10° NNW
ATLAS 2AS CENTAUR R/B 4.1 20:44:05 10° NW 20:49:55 30° WSW 20:55:28 10° S
SPOT 5 2.8 20:46:57 16° SE 20:50:13 54° ENE 20:54:26 10° N
USA 276 3.9 20:50:36 10° NW 20:53:17 28° N 20:55:57 10° ENE
RESURS DK-1 3.3 20:49:30 10° NW 20:53:26 43° WSW 20:56:54 13° S
Cosmos 1455 4.3 20:52:41 10° NW 20:55:51 25° W 20:59:00 10° SW
Cosmos 1726 Rocket 3.9 20:54:26 10° N 20:58:37 47° ENE 21:01:14 21° SE
Cosmos 1331 Rocket 4.3 20:56:36 10° SSW 21:01:53 71° WNW 21:07:12 10° NNE
Cosmos 2082 Rocket 2.3 20:57:23 10° S 21:02:58 58° ESE 21:08:33 10° NNE
Cosmos 2074 Rocket 4.3 20:58:52 10° NNW 21:05:05 66° W 21:11:13 10° S
Helios 1A Rocket 2.9 21:04:55 21° SSE 21:07:33 76° ENE 21:11:40 10° N
Cosmos 2360 4.4 21:01:55 10° NNW 21:07:38 69° WSW 21:11:58 18° SSE
Spot 2 Rocket 3.5 21:04:02 18° SSE 21:07:55 85° ENE 21:13:03 10° NNW
Cosmos 1328 3.7 21:05:03 16° S 21:08:11 75° E 21:12:10 10° NNE
Cosmos 2084 Rocket 3.3 21:07:45 10° NW 21:11:40 73° SW 21:13:53 26° SSE
Nadezhda 1 Rocket 4.0 21:07:22 10° S 21:13:27 86° W 21:19:33 10° N
ERS-1 Rocket 3.0 21:22:07 21° S 21:25:31 77° WSW 21:30:35 10° NNW
X-37B 1.5 21:23:08 10° W 21:25:27 27° SSW 21:25:27 27° SSW
Cosmos 1892 2.9 21:26:27 33° SSE 21:27:42 49° E 21:31:22 10° NNE
Cosmos 1302 Rocket 4.1 21:28:47 10° SSW 21:33:58 75° WNW 21:39:11 10° NNE
Cosmos 2228 4.5 21:32:19 10° NNW 21:36:04 31° W 21:39:23 12° SSW
Cosmos 1892 Rocket 3.7 21:38:01 21° SSW 21:40:55 73° W 21:45:18 10° N
ASTRO F (AKARI) 4.4 21:40:19 44° SSE 21:41:19 79° ENE 21:44:49 10° N
Cosmos 968 Rocket 3.6 21:38:35 10° NNW 21:43:46 68° WSW 21:46:30 28° S
Cosmos 1697 Rocket 3.9 21:41:15 10° NW 21:46:11 33° WSW 21:49:50 16° SSW
Cosmos 1980 Rocket 2.4 21:41:30 10° NNW 21:47:08 65° WSW 21:50:07 28° S
SL-16 R/B 3.1 21:44:34 10° NNW 21:49:54 39° ENE 21:52:57 22° ESE
Cosmos 1408 2.6 21:48:45 35° SSW 21:50:00 65° W 21:53:27 10° N
Cosmos 1626 Rocket 3.9 21:50:06 38° SE 21:51:11 47° E 21:55:22 10° NNE
Cosmos 2058 Rocket 3.1 21:47:03 10° N 21:51:30 81° W 21:53:20 35° S
ATLAS 5 CENTAUR R/B 1.1 21:50:51 21° SW 21:53:12 88° NW 21:57:19 10° NE
SL-8 Rocket 3.9 21:48:31 10° N 21:54:46 83° E 21:58:01 30° SSE
CZ-2C R/B 4.5 21:50:47 10° N 21:55:10 49° WNW 21:58:48 14° SW
USA 267 3.5 21:49:19 10° ENE 21:55:31 43° SE 21:59:31 21° S
Cosmos 2369 4.3 21:50:01 10° NW 21:55:31 49° WSW 21:58:31 26° S
SJ 16-02 2.8 21:58:14 10° N 22:02:04 28° ENE 22:03:35 23° E
In-Cosmos 22 Rocket 4.1 21:59:05 28° S 22:02:04 86° E 22:07:31 10° NNE
SL-4 R/B 3.7 22:04:44 16° ENE 22:04:44 16° ENE 22:05:37 10° ENE
CSL-04 DEB 4.5 22:00:07 10° NNE 22:04:29 74° ESE 22:05:49 43° S
Cosmos 1825 2.0 22:08:00 58° S 22:08:40 88° E 22:12:26 10° N
Cosmos 1867 4.2 22:08:12 10° NW 22:13:22 44° WSW 22:15:18 32° SSW
Cosmos 2366 rocket 4.0 22:08:47 10° N 22:15:09 83° W 22:18:15 33° S
Cosmos 1869 3.2 22:13:50 10° N 22:17:46 83° W 22:18:25 60° S
Cosmos 2218 Rocket 4.1 22:15:13 10° NNW 22:21:38 75° W 22:24:42 33° S
ARIANE 5 R/B 3.9 22:21:46 24° SW 22:23:28 32° W 22:27:28 10° NNW
Cosmos 2322 Rocket 2.7 22:18:29 10° NNW 22:24:02 51° ENE 22:26:28 31° ESE
GP-B 3.7 22:20:28 10° N 22:24:47 52° W 22:26:27 33° SW
Meteor 1-27 4.3 22:19:42 10° NNW 22:25:14 69° W 22:27:28 37° SSW
Terra 3.5 22:22:57 17° SW 22:25:20 25° W 22:29:17 10° NW
SAR-Lupe-4 4.1 22:25:22 10° N 22:28:52 54° WNW 22:29:35 44° WSW
USA 276 2.7 22:26:18 10° WNW 22:28:42 51° NW 22:28:42 51° NW
USA 234 4.2 22:23:19 10° E 22:29:30 46° NNE 22:35:42 10° NW
FALCON 9 DEB 3.9 22:28:07 10° WNW 22:30:31 41° W 22:30:31 41° W
BREEZE-M DEB (TANK) 4.3 22:33:34 10° WNW 22:36:47 58° NNE 22:48:42 10° E
Cosmos 2278 4.4 22:32:01 10° NW 22:37:24 43° WSW 22:39:18 32° SSW
Cosmos 1633 2.4 22:39:01 77° NW 22:39:01 77° NW 22:42:22 10° N
Cosmos 1758 Rocket 3.4 22:42:24 64° S 22:43:03 86° E 22:47:29 10° N
Cosmos 2333 Rocket 3.6 22:39:40 10° N 22:44:49 32° NE 22:48:05 19° ESE
Cosmos 2082 Rocket 4.2 22:42:43 10° WSW 22:47:25 26° NW 22:52:08 10° N
Cosmos 1606 2.6 22:50:30 10° N 22:54:21 76° ENE 22:54:21 76° ENE
Cosmos-2242 2.8 22:50:31 10° NNW 22:54:46 77° W 22:55:10 69° SSW
Cosmos 1812 Rocket 3.8 22:51:06 10° NNW 22:55:30 60° W 22:56:09 53° SW
ADEOS Rocket 3.6 22:53:13 35° SSE 22:56:40 73° ENE 23:04:25 10° N
ISS -0.9 23:00:48 10° ENE 23:00:48 10° ENE 23:00:52 10° ENE
Cosmos 1340 Rocket 3.4 22:58:42 44° E 22:58:42 44° E 23:02:12 10° NNE
Cosmos 2360 Rocket 2.4 22:52:54 10° NNW 22:58:33 62° ENE 23:00:31 39° SE
Gbstr 26 Del rocket 2.9 22:59:00 62° SW 22:59:43 85° SE 23:04:38 10° ENE
Cosmos 375 4.3 23:05:37 73° SE 23:05:38 73° SE 23:10:24 10° NE
Cosmos 1821 Rocket 4.1 23:03:10 10° NNW 23:09:19 66° W 23:11:22 42° SSW
BREEZE-M DEB (TANK) 4.2 23:12:24 26° ENE 23:12:24 26° ENE 23:14:45 10° ENE
SL-27 R/B 4.4 23:13:18 19° ENE 23:13:18 19° ENE 23:14:43 10° NE
Cosmos 44 3.0 23:14:09 71° SE 23:14:21 73° ESE 23:18:50 10° NE
Cosmos 1833 4.1 23:14:26 53° SSE 23:15:35 68° ESE 23:21:10 10° NNE
Cosmos 972 Rocket 4.3 23:11:45 10° NNW 23:17:02 68° ENE 23:18:42 45° SE
Cosmos 1354 Rocket 4.5 23:13:36 10° NNW 23:18:39 47° WSW 23:19:33 42° SW
Cosmos 2237 4.4 23:15:39 10° NNW 23:21:17 60° WSW 23:22:30 49° SSW
ALOS 2 2.5 23:21:36 66° SW 23:21:55 68° WSW 23:26:18 10° NNW
Spot 4 4.4 23:21:49 41° WSW 23:22:30 44° W 23:27:06 10° NNW
CENTAUR R/B 3.4 23:22:31 27° ESE 23:22:54 27° ESE 23:28:20 10° NE
ERS-2 2.8 23:20:05 10° NNE 23:22:56 45° ENE 23:22:56 45° ENE
Cosmos 1605 Rocket 4.4 23:19:50 10° N 23:26:09 56° ENE 23:28:27 37° SE
Cosmos 2058 3.3 23:29:58 52° W 23:30:17 54° W 23:34:25 10° N
Nadezhda 3 Rocket 4.4 23:28:02 34° SW 23:30:29 54° WNW 23:36:32 10° N
Cosmos 2151 4.4 23:31:03 26° E 23:31:09 26° E 23:34:45 10° NNE
COSMOS 2428 3.9 23:26:02 10° NNW 23:31:18 36° NE 23:34:37 20° ESE
H-2A R/B 3.9 23:28:10 10° N 23:32:16 52° WNW 23:32:48 49° W
Cosmos 1777 Rocket 4.2 23:27:11 10° NNW 23:32:21 54° WSW 23:33:07 50° SW
Cosmos 1953 Rocket 3.5 23:33:03 72° SW 23:33:24 77° W 23:37:50 10° N
SL-16 R/B 3.1 23:28:52 10° NW 23:33:54 34° WSW 23:34:48 32° WSW
Cosmos 2219 Rocket 2.7 23:28:46 10° NNW 23:34:20 53° ENE 23:36:41 32° ESE
ATLAS 5 CENTAUR R/B 4.2 23:36:11 10° WNW 23:38:30 15° NNW 23:40:58 10° N
USA 267 3.6 23:32:14 10° NE 23:38:41 64° NNW 23:45:08 10° WSW
SJ 16-02 2.5 23:36:43 10° NW 23:40:31 30° W 23:40:31 30° W
SL-4 R/B 3.0 23:40:05 24° WNW 23:41:41 39° NNW 23:45:10 10° NE
Cosmos 1825 Rocket 4.4 23:41:10 37° W 23:41:48 39° WNW 23:45:54 10° N
Cosmos 2322 4.1 23:37:53 10° NNW 23:43:30 57° ENE 23:45:45 34° ESE
Cosmos 2221 2.4 23:47:42 10° NNW 23:52:05 78° W 23:52:14 76° SW
PSLV R/B 3.6 23:50:17 10° NNE 23:55:02 89° E 23:55:36 70° S
